Tracking 20369 objects as of 17-Feb-2020
HD Live streaming from Space Station
objects crossing your sky now

SL-18 DEB

Track SL-18 DEB now!
10-day predictions


NORAD ID: 28283
Int'l Code: 1993-014L
Perigee: 569.8 km
Apogee: 633.5 km
Inclination: 75.7 °
Period: 96.6 minutes
Semi major axis: 6972 km
RCS: 0.0138 m2 (small)
Launch date: March 25, 1993
Source: Commonwealth of Independent States (former USSR) (CIS)
Launch site: PLESETSK MISSILE AND SPACE COMPLEX (PKMTR)

Note: This is SATELLITE DEBRIS
aabbcc
Your satellite tracking list
Your tracking list is empty




NASA's NSSDC Master Catalog

Two Line Element Set (TLE):
1 28283U 93014L   20048.38777709 +.00003342 +00000-0 +33261-3 0  9992
2 28283 075.7421 299.7661 0045731 356.6829 003.4052 14.91097107356096
Source of the keplerian elements: AFSPC